Location: Bad Salzschlirf
(50.3750°N, 9.3000°E)
Time: 04:43:45
(UTC+02:00)

ISS - Pass Details

Date: 29 March 2020
Orbit: 417 x 423 km, 51.6° (Epoch: 29 March)

Event Time Altitude Azimuth Distance (km) Brightness Sun altitude
Rises 21:42:22 0° 285° (WNW) 2,362 1.6 -17.6°
Reaches altitude 10° 21:44:28 10° 284° (WNW) 1,497 0.2 -17.9°
Maximum altitude 21:47:49 77° 200° (SSW) 433 -3.8 -18.4°
Enters shadow 21:48:12 66° 139° (SE) 461 -3.9 -18.4°
